This is the latest recevied weather packets stored in our database for station/object VA3XLT-1. If no packets are shown the sender has not sent any weather packets the latest 10 day(s).
| Time | Temp. | Humidity | Pressure | Rain* | Wind** | Luminosity | Snow |
|---|---|---|---|---|---|---|---|
| 1777917160 | 22.22° C | 48% | 1003.6 hPa | 0 mm | - | - | - |
| 1777916860 | 21.67° C | 49% | 1003.6 hPa | 0 mm | - | - | - |
| 1777916560 | 21.67° C | 50% | 1003.7 hPa | 0 mm | - | - | - |
| 1777916260 | 21.11° C | 49% | 1003.8 hPa | 0 mm | - | - | - |
| 1777915960 | 21.11° C | 50% | 1003.8 hPa | 0 mm | - | - | - |
| 1777915660 | 22.22° C | 49% | 1003.7 hPa | 0 mm | - | - | - |
| 1777915360 | 22.22° C | 49% | 1003.7 hPa | 0 mm | - | - | - |
| 1777915060 | 21.67° C | 48% | 1003.8 hPa | 0 mm | - | - | - |
| 1777914760 | 22.22° C | 50% | 1003.8 hPa | 0 mm | - | - | - |
| 1777914460 | 21.67° C | 47% | 1003.9 hPa | 0 mm | - | - | - |
| 1777914160 | 21.67° C | 47% | 1004.1 hPa | 0 mm | - | - | - |
| 1777913860 | 22.22° C | 48% | 1004.2 hPa | 0 mm | - | - | - |
| 1777913560 | 21.67° C | 49% | 1004.2 hPa | 0 mm | - | - | - |
| 1777913260 | 21.67° C | 48% | 1004.2 hPa | 0 mm | - | - | - |
| 1777912960 | 21.11° C | 47% | 1004.3 hPa | 0 mm | - | - | - |
| 1777912660 | 20.56° C | 49% | 1004.4 hPa | 0 mm | - | - | - |
| 1777912360 | 21.11° C | 49% | 1004.5 hPa | 0 mm | - | - | - |
| 1777912060 | 21.11° C | 47% | 1004.5 hPa | 0 mm | - | - | - |
| 1777911760 | 20.56° C | 50% | 1004.6 hPa | 0 mm | - | - | - |
| 1777911460 | 19.44° C | 52% | 1004.5 hPa | 0 mm | - | - | - |
| 1777911160 | 20° C | 52% | 1004.6 hPa | 0 mm | - | - | - |
| 1777910860 | 20° C | 54% | 1004.7 hPa | 0 mm | - | - | - |
| 1777910560 | 20° C | 52% | 1004.7 hPa | 0 mm | - | - | - |
| 1777910260 | 20° C | 51% | 1004.7 hPa | 0 mm | - | - | - |
| 1777909960 | 20° C | 52% | 1004.8 hPa | 0 mm | - | - | - |
* Rain latest hour (hover to see other rain measurements)
** Current wind speed in m/s (hover to see current wind gust speed)